Regional Weather Roundup
Issued by NWS

Home | Current Version | Previous Version | Text Only | Print | Product List | Glossary Off
Versions: 1 2 3 4 5 6 7 8 9 10 11 12 13 14 15 16 17 18 19 20 21 22 23 24 25 26 27 28 29 30 31 32 33 34 35 36 37 38 39 40 41 42 43 44 45 46 47 48 49 50

000
ASUS43 KDTX 222310
RWRMI
MICHIGAN HOURLY REGIONAL WEATHER ROUNDUP
NATIONAL WEATHER SERVICE DETROIT/PONTIAC MI
700 PM EDT FRI SEP 22 2017

NOTE: "FAIR" INDICATES FEW OR NO CLOUDS BELOW 12,000 FEET WITH NO
SIGNIFICANT WEATHER AND/OR OBSTRUCTION TO VISIBILITY.

MIZ047>049-052>055-059>063-066>070-074>076-081>083-230000-
SOUTHEAST LOWER MICHIGAN

CITY           SKY/WX    TMP DP  RH WIND       PRES   REMARKS
ADRIAN         CLOUDY    83  67  58 CALM      30.10R
ALMA           CLEAR     90  60  36 W6        30.06S
ANN ARBOR      CLEAR     81  69  67 SE5       30.09R
BAD AXE        CLEAR     83  67  57 CALM      30.07S
CARO           CLEAR     87  68  53 CALM      30.05S HX  90
DETROIT CITY   CLEAR     83  66  56 SE6       30.08R
DETROIT        PTCLDY    81  67  62 S7        30.10R
FLINT          CLEAR     88  66  48 W3        30.07S HX  90
GROSSE ILE     CLEAR     74  69  84 S5        30.08R
HILLSDALE      CLOUDY    79  55  44 SE5       30.11S
HOWELL         PTCLDY    86  64  47 CALM      30.09R

CITY           SKY/WX    TMP DP  RH WIND       PRES   REMARKS
JACKSON        CLOUDY    80  66  62 CALM      30.09S
LAMBERTVILLE   CLEAR     80  67  65 CALM      30.09R
LANSING        CLEAR     86  68  54 CALM      30.07S
LAPEER         FAIR      85  66  52 SE3       30.08S
MASON          CLOUDY    86  67  51 CALM      30.08S
MONROE         CLEAR     79  65  63 CALM      30.08R
MT. CLEMENS    PTCLDY    79  70  73 SE5       30.07S
PONTIAC        PTCLDY    86  67  52 SE6       30.08R
PORT HOPE        N/A     75  69  81 CALM      30.06R
PORT HURON     CLEAR     81  72  74 CALM      30.08F
TRI CITIES     CLEAR     89  67  47 S5        30.05S HX  92
MIDLAND        FAIR      90  68  49 CALM      30.04S HX  94
TROY           CLEAR     87  64  46 SE3       30.10S
SAGINAW HB     CLEAR     88  66  48 S6        30.05S HX  90
$$
MIZ043>046-050>051-056>058-064>065-071>073-077>080-230000-
SOUTHWEST LOWER MICHIGAN

CITY           SKY/WX    TMP DP  RH WIND       PRES   REMARKS
BATTLE CREEK   CLEAR     89  66  46 S5        30.08S HX  91
BENTON HARBOR  CLEAR     85  65  51 CALM      30.05S
BIG RAPIDS     CLEAR     84  64  50 W5        30.06S
COLDWATER      PTCLDY    82  62  51 E7        30.09S
FREMONT        FAIR      86  63  45 SW5       30.06S
HOLLAND        CLEAR     86  64  47 W5        30.07S
GRAND RAPIDS   PTCLDY    91  64  40 SW7       30.06S HX  92
IONIA          FAIR      91  61  37 SW3       30.06S HX  91
KALAMAZOO      CLEAR     90  61  37 SE3       30.07R HX  90
LUDINGTON      CLOUDY    84  64  51 S3        30.03S
MARSHALL       CLEAR     83  63  51 SE6       30.09R
MOUNT PLEASANT CLEAR     90  63  40 CALM      30.04S HX  90
MUSKEGON       PTCLDY    86  65  49 S6        30.06S
SOUTH HAVEN    CLEAR     85  65  51 CALM      30.06S
$$
MIZ016>042-230000-
NORTHERN LOWER MICHIGAN

CITY           SKY/WX    TMP DP  RH WIND       PRES   REMARKS
ALPENA         TSTM      75  66  73 NW23G37   30.06R
BEAVER ISLAND  CLOUDY    70  64  80 SE10      29.99F
BELLAIRE       CLOUDY    76  61  58 E3        30.06F
CADILLAC       MOCLDY    85  62  46 N13G23    30.10R
CHARLEVOIX     CLOUDY    73  62  68 SE6       30.07F
FRANKFORT      CLOUDY    79  66  64 SE7       30.04F
GAYLORD        CLOUDY    72  59  63 VRB5      30.10F
GRAYLING       PTCLDY    74  60  61 NE3G17    30.13R
HARBOR SPRINGS CLOUDY    71  63  74 CALM      30.04F
HOUGHTON LAKE  PTCLDY    84  66  54 NW18G26   30.10R
MANISTEE       PTCLDY    78  68  71 CALM      30.06R
OSCODA         CLEAR     85  67  55 S3        30.03F
PELLSTON       CLOUDY    71  63  75 S5        30.05F
ROGERS CITY    PTCLDY    74  65  72 NW9       30.08S
TRAVERSE CITY  CLOUDY    77  64  64 N3        30.05F
$$
MIZ007>008-015-230000-
EASTERN UPPER MICHIGAN

CITY           SKY/WX    TMP DP  RH WIND       PRES   REMARKS
KINROSS        MOCLDY    68  66  93 E6        30.01F
MACKINAC ISLAN CLOUDY    70  64  81 S8        30.02F
NEWBERRY       CLOUDY    66  65  97 NE7       29.97F
S. S. MARIE    CLOUDY    70  66  87 NE3       30.01F
MUNISING         N/A     71  65  81 SW9       29.94S
$$
MIZ004>006-011>014-085-230000-
CENTRAL UPPER MICHIGAN

CITY           SKY/WX    TMP DP  RH WIND       PRES   REMARKS
MANISTIQUE     CLOUDY    66  60  81 S3        29.98R
ESCANABA       CLOUDY    70  66  87 CALM      29.98S
MENOMINEE      CLOUDY    74  65  73 S13       30.01F
SAWYER-GWINN   CLEAR     66  64  94 W5        29.99F
$$
MIZ001>003-009>011-084-230000-
WESTERN UPPER MICHIGAN

CITY           SKY/WX    TMP DP  RH WIND       PRES   REMARKS
IRON MOUNTAIN  MOCLDY    72  65  78 S5        29.97F
HOUGHTON       CLOUDY    68  62  81 E8        29.93R
COPPER HARBOR    N/A     68  62  81 VRB3      29.93F
IRONWOOD       PTCLDY    78  70  76 S14G21    29.88S
$$

ABBREVIATIONS USED IN REMARKS
   TC - TEMPERATURE IN CELSIUS
  WCI - WIND CHILL INDEX
   HX - HEAT INDEX
  VSB - VISIBILITY





USA.gov is the U.S. government's official web portal to all federal, state and local government web resources and services.